Orbital Elements at Epoch 2459200.5 (2020-Dec-17.0) TDB
Reference: JPL 26 (heliocentric ecliptic J2000)
Element | Value | Uncertainty (1-sigma) | Units |
e | .1775993449638434 | 2.0639e-08 | |
a | 2.273113831788451 | 7.9744e-09 | au |
q | 1.86941030423457 | 4.7106e-08 | au |
i | 8.855403884079573 | 9.3006e-07 | deg |
node | 55.7897933570115 | 2.5042e-06 | deg |
peri | 354.5783640734454 | 5.7062e-06 | deg |
M | 280.6098248035086 | 5.1582e-06 | deg |
tp | 2459476.554266321817 (2021-Sep-19.05426632) | 1.8972e-05 | TDB |
period | 1251.786327840803 3.43 | 6.5871e-06 1.803e-08 | d yr |
n | .2875890173852285 | 1.5133e-09 | deg/d |
Q | 2.676817359342332 | 9.3906e-09 | au |
|
| | Orbit Determination Parameters
Additional Information
|